N1UNH Weather Reports


time (UTC)temp
C
wind
direction
speed
KPH
gust
KPH
rain 1hr
cm
rain 24hr
cm
rain mn
cm
humidity
%
barometer
mb
20260507161931 15 204 1.6 3.2 0.00 0.00 0.00 36 1012.8
20260507161427 15 204 1.6 1.6 0.00 0.00 0.00 36 1012.7
20260507160924 15 204 3.2 3.2 0.00 0.00 0.00 41 1012.6
20260507160420 15 204 1.6 3.2 0.00 0.00 0.00 37 1012.8
20260507155916 15 204 3.2 3.2 0.00 0.00 0.00 35 1012.8
20260507155412 15 204 1.6 1.6 0.00 0.00 0.00 43 1012.6
20260507154909 14 204 0.0 0.0 0.00 0.00 0.00 42 1012.8
20260507154406 14 204 1.6 3.2 0.00 0.00 0.00 41 1012.9
20260507153903 14 204 4.8 4.8 0.00 0.00 0.00 44 1012.8
20260507153359 14 204 1.6 3.2 0.00 0.00 0.00 40 1012.9
20260507153224 13 204 1.6 3.2 0.00 0.00 0.00 42 1013.0
20260507152856 13 204 1.6 3.2 0.00 0.00 0.00 42 1013.0
20260507152731 13 204 3.2 3.2 0.00 0.00 0.00 48 1013.0
20260507152352 13 204 1.6 1.6 0.00 0.00 0.00 44 1013.0
20260507151848 13 204 3.2 3.2 0.00 0.00 0.00 48 1013.0
20260507151344 13 204 1.6 3.2 0.00 0.00 0.00 46 1013.3
20260507150842 13 204 6.4 4.8 0.00 0.00 0.00 53 1013.0
20260507150338 12 204 1.6 3.2 0.00 0.00 0.00 53 1013.3
20260507145834 12 204 1.6 1.6 0.00 0.00 0.00 61 1013.1
20260507145331 11 204 1.6 1.6 0.00 0.00 0.00 66 1012.9
20260507144828 11 204 0.0 0.0 0.00 0.00 0.00 66 1012.8
20260507144325 11 203 1.6 1.6 0.00 0.00 0.00 61 1013.2
20260507143822 11 203 0.0 0.0 0.00 0.00 0.00 64 1013.1
20260507143319 11 203 1.6 1.6 0.00 0.00 0.00 65 1013.3
20260507142815 11 204 0.0 0.0 0.00 0.00 0.00 66 1013.1
20260507142312 11 203 0.0 0.0 0.00 0.00 0.00 63 1013.2
20260507141809 11 203 0.0 0.0 0.00 0.00 0.00 61 1013.3
20260507141306 11 203 3.2 3.2 0.00 0.00 0.00 65 1013.3
20260507140801 11 203 1.6 1.6 0.00 0.00 0.00 66 1012.9
20260507140259 11 204 1.6 1.6 0.00 0.00 0.00 68 1012.8
20260507135756 11 203 0.0 0.0 0.00 0.00 0.00 68 1013.2
20260507135253 11 204 1.6 1.6 0.00 0.00 0.00 65 1013.3
20260507134749 11 203 1.6 1.6 0.00 0.00 0.00 67 1013.0
20260507134246 10 203 0.0 0.0 0.00 0.00 0.00 73 1013.3
20260507133742 10 203 3.2 3.2 0.00 0.00 0.00 74 1013.3
20260507133239 10 203 1.6 1.6 0.00 0.00 0.00 71 1013.3
20260507132736 11 203 0.0 0.0 0.00 0.00 0.00 70 1013.4
20260507132233 11 203 0.0 0.0 0.00 0.00 0.00 71 1013.4
20260507131730 11 203 1.6 1.6 0.00 0.00 0.00 71 1013.5
20260507131227 10 203 1.6 1.6 0.00 0.00 0.00 71 1013.4
20260507130724 10 203 3.2 3.2 0.00 0.00 0.00 75 1013.6
20260507130221 10 203 0.0 1.6 0.00 0.00 0.00 74 1013.9
20260507125720 10 203 3.2 3.2 0.00 0.00 0.00 72 1013.8
20260507125217 10 203 0.0 0.0 0.00 0.00 0.00 74 1013.6
20260507124714 10 203 1.6 1.6 0.00 0.00 0.00 77 1013.6
20260507124211 9 203 1.6 1.6 0.00 0.00 0.00 78 1013.6
20260507123709 9 203 1.6 3.2 0.00 0.00 0.00 77 1013.3
20260507123206 9 203 0.0 0.0 0.00 0.00 0.00 80 1013.3
20260507122701 9 203 0.0 0.0 0.00 0.00 0.00 78 1013.4
20260507122157 8 203 0.0 0.0 0.00 0.00 0.00 80 1013.3
20260507121653 8 203 1.6 1.6 0.00 0.00 0.00 83 1013.4
20260507121149 8 203 0.0 0.0 0.00 0.00 0.00 90 1013.5
20260507120646 8 203 0.0 0.0 0.00 0.00 0.00 89 1013.6
20260507120142 8 203 3.2 3.2 0.00 0.00 0.00 87 1013.5
20260507115639 8 203 0.0 1.6 0.00 0.00 0.00 89 1013.8
20260507115134 7 203 1.6 1.6 0.00 0.00 0.00 88 1013.8
20260507114630 7 203 0.0 0.0 0.00 0.00 0.00 88 1013.8
20260507114128 7 203 0.0 0.0 0.00 0.00 0.00 89 1013.4
20260507113625 7 203 0.0 0.0 0.00 0.00 0.00 89 1013.4
20260507113122 7 203 1.6 1.6 0.00 0.00 0.00 92 1013.8
20260507112620 7 203 0.0 0.0 0.00 0.00 0.00 95 1013.5
20260507112116 6 203 0.0 0.0 0.00 0.00 0.00 95 1013.8
20260507111614 6 203 0.0 0.0 0.00 0.00 0.00 95 1013.4
20260507111110 6 203 0.0 0.0 0.00 0.00 0.00 96 1013.8
20260507110607 6 203 1.6 1.6 0.00 0.00 0.00 96 1013.6
20260507110103 6 203 0.0 0.0 0.00 0.00 0.00 96 1013.5
20260507105600 6 203 0.0 0.0 0.00 0.00 0.00 96 1013.3
20260507105056 6 203 0.0 0.0 0.00 0.00 0.00 95 1013.0
20260507104554 6 203 1.6 1.6 0.00 0.00 0.00 95 1012.9
20260507104050 6 203 0.0 0.0 0.00 0.00 0.00 95 1013.0
20260507103546 6 203 0.0 0.0 0.00 0.00 0.00 95 1013.1
20260507103043 6 203 0.0 0.0 0.00 0.00 0.00 95 1013.2
20260507102539 6 203 0.0 0.0 0.00 0.00 0.00 95 1013.1
20260507102035 6 203 0.0 0.0 0.00 0.00 0.00 94 1013.3
20260507101531 6 203 0.0 0.0 0.00 0.00 0.00 94 1013.2
20260507101027 6 203 0.0 0.0 0.00 0.00 0.00 94 1012.8
20260507100525 6 203 0.0 0.0 0.00 0.00 0.00 94 1013.0
20260507100023 6 203 0.0 0.0 0.00 0.00 0.00 94 1013.3
20260507095521 6 203 0.0 0.0 0.00 0.00 0.00 94 1013.3
20260507095017 7 203 0.0 0.0 0.00 0.00 0.00 94 1012.8
20260507094513 7 203 0.0 0.0 0.00 0.00 0.00 94 1013.1
20260507094010 7 203 1.6 1.6 0.00 0.00 0.00 94 1013.1
20260507093508 7 203 0.0 0.0 0.00 0.00 0.00 94 1013.4
20260507093007 7 203 0.0 0.0 0.00 0.00 0.00 94 1013.2
20260507092502 7 203 0.0 0.0 0.00 0.00 0.00 94 1013.4
20260507091959 7 203 0.0 0.0 0.00 0.00 0.00 94 1013.1
20260507091455 7 203 0.0 0.0 0.00 0.00 0.00 94 1013.5
20260507090952 7 203 0.0 0.0 0.00 0.00 0.00 94 1013.6
20260507090448 7 203 0.0 0.0 0.00 0.00 0.00 94 1013.6
20260507085944 7 203 0.0 0.0 0.00 0.00 0.00 95 1013.6
20260507085442 7 203 0.0 0.0 0.00 0.00 0.00 94 1013.3
20260507084938 7 203 1.6 1.6 0.00 0.00 0.00 94 1012.7
20260507084435 7 203 0.0 0.0 0.00 0.00 0.00 95 1012.8
20260507083932 7 203 0.0 0.0 0.00 0.00 0.00 94 1012.9
20260507083429 7 203 0.0 0.0 0.00 0.00 0.00 94 1012.7
20260507082925 7 203 0.0 0.0 0.00 0.00 0.00 94 1012.9
20260507082421 7 203 0.0 0.0 0.00 0.00 0.00 94 1013.0
20260507081918 7 203 0.0 0.0 0.00 0.00 0.00 95 1012.7
20260507081414 7 203 1.6 1.6 0.00 0.00 0.00 95 1013.2
20260507080911 7 203 1.6 1.6 0.00 0.00 0.00 95 1012.7
20260507080408 7 203 1.6 1.6 0.00 0.00 0.00 95 1012.6
20260507075903 7 203 0.0 0.0 0.00 0.00 0.00 95 1012.8
20260507075359 7 203 0.0 0.0 0.00 0.00 0.00 95 1013.1
20260507074856 7 203 0.0 0.0 0.00 0.00 0.00 95 1013.1
20260507074353 7 203 0.0 0.0 0.00 0.00 0.00 95 1013.1
20260507073850 7 203 0.0 0.0 0.00 0.00 0.00 95 1012.8
20260507073346 7 203 0.0 0.0 0.00 0.00 0.00 95 1012.6
20260507072844 7 203 0.0 0.0 0.00 0.00 0.00 95 1012.5
20260507072341 7 203 0.0 0.0 0.00 0.00 0.00 95 1012.5
20260507071839 7 203 0.0 0.0 0.00 0.00 0.00 95 1012.2
20260507071336 7 203 0.0 0.0 0.00 0.00 0.00 94 1012.8
20260507070832 7 203 1.6 0.0 0.00 0.00 0.00 94 1012.5
20260507070329 7 203 0.0 0.0 0.00 0.00 0.00 94 1012.4
20260507065826 7 203 0.0 0.0 0.00 0.00 0.00 94 1012.3
20260507065322 7 203 0.0 0.0 0.00 0.00 0.00 94 1012.5
20260507064820 7 203 0.0 0.0 0.00 0.00 0.00 94 1012.4
20260507064318 7 203 1.6 1.6 0.00 0.00 0.00 94 1012.2
20260507063816 7 203 0.0 0.0 0.00 0.00 0.00 94 1012.3
20260507063312 8 203 0.0 0.0 0.00 0.00 0.00 93 1012.6
20260507062809 8 203 0.0 0.0 0.00 0.00 0.00 93 1012.7
20260507062306 8 203 1.6 1.6 0.00 0.00 0.00 94 1012.9
20260507061804 8 203 1.6 1.6 0.00 0.00 0.00 94 1012.6
20260507061302 8 203 0.0 0.0 0.00 0.00 0.00 94 1012.5
20260507060800 8 203 0.0 0.0 0.00 0.00 0.00 94 1012.9
20260507060256 8 203 0.0 0.0 0.00 0.00 0.00 94 1012.2
20260507055753 8 203 0.0 0.0 0.00 0.00 0.00 94 1012.6
20260507055248 8 203 1.6 1.6 0.00 0.00 0.00 93 1012.6
20260507054745 8 203 0.0 0.0 0.00 0.00 0.00 93 1012.6
20260507054241 8 203 0.0 0.0 0.00 0.00 0.00 94 1012.8
20260507053739 8 203 1.6 1.6 0.00 0.00 0.00 94 1012.7
20260507053236 8 203 0.0 0.0 0.00 0.00 0.00 93 1012.4
20260507052735 8 203 0.0 0.0 0.00 0.00 0.00 93 1012.6
20260507052231 8 203 1.6 1.6 0.00 0.00 0.00 93 1012.6
20260507051729 8 203 0.0 0.0 0.00 0.00 0.00 94 1012.7
20260507051226 8 203 0.0 0.0 0.00 0.00 0.00 94 1012.5
20260507050722 8 203 0.0 0.0 0.00 0.00 0.00 94 1012.2
20260507050220 8 203 0.0 0.0 0.00 0.00 0.00 94 1012.6
20260507045716 8 203 0.0 0.0 0.00 0.00 0.00 94 1012.2
20260507045212 8 203 0.0 0.0 0.00 0.00 0.00 94 1012.4
20260507044710 9 203 1.6 1.6 0.00 0.00 0.00 94 1012.3
20260507044206 9 203 0.0 0.0 0.00 0.00 0.00 94 1012.5
20260507043702 9 203 0.0 1.6 0.00 0.00 0.00 95 1012.3
20260507043159 10 203 0.0 0.0 0.00 0.00 0.00 95 1012.4
20260507042656 9 203 0.0 0.0 0.00 0.00 0.00 94 1012.5
20260507042150 9 203 0.0 0.0 0.00 0.00 0.00 94 1012.7
20260507041648 9 203 0.0 0.0 0.00 0.00 0.00 94 1012.7
20260507041144 10 203 0.0 0.0 0.00 0.00 0.00 94 1012.3
20260507040642 10 203 1.6 1.6 0.00 0.00 0.00 94 1012.7
20260507040138 10 203 0.0 0.0 0.00 0.00 0.00 94 1012.6
20260507035634 10 203 0.0 0.0 0.00 0.86 0.86 94 1012.8
20260507035130 10 203 0.0 0.0 0.00 0.86 0.86 94 1012.6
20260507034627 10 203 0.0 0.0 0.00 0.86 0.86 94 1012.4
20260507034125 10 203 0.0 0.0 0.00 0.86 0.86 94 1012.3
20260507033623 10 203 0.0 0.0 0.00 0.86 0.86 94 1012.3
20260507033120 10 203 0.0 0.0 0.00 0.86 0.86 94 1012.5
20260507032617 10 203 0.0 0.0 0.00 0.86 0.86 94 1012.3
20260507032113 10 203 0.0 0.0 0.00 0.86 0.86 94 1012.4
20260507031610 10 203 0.0 0.0 0.00 0.86 0.86 94 1012.4
20260507031106 10 203 0.0 0.0 0.18 0.86 0.86 94 1012.5
20260507030603 10 203 0.0 0.0 0.30 0.86 0.86 93 1012.4
20260507030101 10 203 0.0 0.0 0.43 0.84 0.84 93 1012.4
20260507025558 11 203 0.0 0.0 0.48 0.81 0.81 92 1012.3
20260507025055 11 203 0.0 0.0 0.18 0.76 0.76 92 1012.3
20260507024553 11 203 0.0 0.0 0.00 0.74 0.74 92 1012.1
20260507024050 11 203 1.6 1.6 0.00 0.74 0.74 93 1012.0
20260507023545 11 203 3.2 3.2 0.13 0.74 0.74 93 1012.2
20260507023043 11 203 0.0 0.0 0.13 0.74 0.74 93 1012.0
20260507022539 12 203 0.0 0.0 0.00 0.71 0.71 93 1012.0
20260507022035 12 203 0.0 0.0 0.00 0.71 0.71 93 1011.8
20260507021531 12 203 0.0 1.6 0.00 0.71 0.71 94 1011.5
20260507021028 12 203 1.6 1.6 0.00 0.71 0.71 94 1011.5
20260507020525 12 203 1.6 1.6 0.00 0.71 0.71 94 1011.6
20260507020022 12 203 1.6 1.6 0.00 0.71 0.71 94 1011.4
20260507015520 12 203 1.6 1.6 0.18 0.71 0.71 94 1011.3
20260507015017 12 203 0.0 0.0 0.30 0.71 0.71 94 1011.2
20260507014514 12 203 0.0 0.0 0.30 0.69 0.69 94 1011.2
20260507014010 12 203 0.0 0.0 0.48 0.66 0.66 94 1010.9
20260507013506 13 203 0.0 0.0 0.61 0.64 0.64 94 1011.1
20260507013004 13 203 1.6 1.6 0.30 0.58 0.58 94 1011.3
20260507012501 13 203 0.0 0.0 0.18 0.53 0.53 94 1011.3
20260507011957 13 203 0.0 0.0 0.48 0.53 0.53 94 1011.0
20260507011454 13 203 0.0 0.0 0.61 0.51 0.51 95 1011.0
20260507010950 15 203 1.6 1.6 0.30 0.46 0.46 95 1010.8
20260507010444 15 203 0.0 0.0 0.00 0.41 0.41 95 1010.5
20260507005942 15 203 0.0 0.0 0.00 0.41 0.41 95 1010.3
20260507005439 15 203 0.0 0.0 0.00 0.41 0.41 95 1010.4
20260507004935 15 203 0.0 0.0 0.00 0.41 0.41 95 1010.3
20260507004432 15 203 1.6 0.0 0.00 0.41 0.41 95 1010.5
20260507003930 15 203 0.0 0.0 0.00 0.41 0.41 95 1010.4
20260507003424 15 203 1.6 1.6 0.00 0.41 0.41 95 1010.3
20260507002920 15 203 1.6 1.6 0.00 0.41 0.41 95 1010.2
20260507002416 15 203 0.0 0.0 0.00 0.41 0.41 95 1010.2
20260507001914 15 203 0.0 0.0 0.00 0.41 0.41 95 1010.2
20260507001410 15 203 0.0 0.0 0.00 0.41 0.41 95 1010.3
20260507000908 15 203 0.0 0.0 0.00 0.41 0.41 95 1010.1
20260507000405 15 203 0.0 0.0 0.00 0.41 0.41 95 1010.0
20260506235859 15 203 0.0 0.0 0.00 0.41 0.41 95 1010.2
20260506235356 15 203 0.0 0.0 0.00 0.41 0.41 95 1010.2
20260506234852 15 203 0.0 0.0 0.00 0.41 0.41 95 1009.8
20260506234350 15 203 0.0 0.0 0.00 0.41 0.41 95 1009.8
20260506233847 15 203 0.0 1.6 0.00 0.41 0.41 95 1010.0
20260506233343 15 203 0.0 0.0 0.00 0.41 0.41 95 1009.8
20260506232841 15 203 1.6 1.6 0.00 0.41 0.41 95 1009.9
20260506232336 15 203 0.0 0.0 0.00 0.41 0.41 95 1009.9
20260506231833 15 203 0.0 0.0 0.00 0.41 0.41 95 1010.1
20260506231330 15 203 1.6 1.6 0.00 0.41 0.41 95 1010.1
20260506230828 15 203 0.0 1.6 0.00 0.41 0.41 95 1010.0
20260506230324 15 203 0.0 0.0 0.00 0.41 0.41 95 1010.2
20260506225820 15 203 1.6 1.6 0.00 0.41 0.41 95 1009.9
20260506225318 15 203 1.6 1.6 0.00 0.41 0.41 95 1010.1
20260506224815 15 203 0.0 0.0 0.00 0.41 0.41 95 1009.9
20260506224312 15 203 0.0 0.0 0.00 0.41 0.41 95 1010.0
20260506223808 15 203 0.0 0.0 0.00 0.41 0.41 95 1010.1
20260506223303 15 203 1.6 1.6 0.00 0.41 0.41 95 1010.0
20260506222801 15 203 1.6 1.6 0.00 0.41 0.41 94 1009.9
20260506222256 15 203 1.6 0.0 0.00 0.41 0.41 94 1010.0
20260506221754 15 203 0.0 0.0 0.00 0.41 0.41 95 1010.1
20260506221252 15 203 0.0 0.0 0.00 0.41 0.41 95 1010.1
20260506220750 15 203 1.6 1.6 0.00 0.41 0.41 95 1010.1
20260506220249 15 203 1.6 1.6 0.00 0.41 0.41 95 1010.2
20260506215747 15 203 1.6 1.6 0.00 0.41 0.41 95 1010.3
20260506215242 15 203 0.0 0.0 0.00 0.41 0.41 95 1010.2
20260506214739 15 203 0.0 1.6 0.00 0.41 0.41 95 1010.1
20260506214236 15 203 1.6 1.6 0.00 0.41 0.41 95 1010.2
20260506213735 15 203 0.0 0.0 0.00 0.41 0.41 95 1009.9
20260506213231 15 203 0.0 0.0 0.00 0.41 0.41 95 1010.3
20260506212728 16 203 1.6 1.6 0.00 0.41 0.41 95 1010.2
20260506212224 16 203 1.6 1.6 0.00 0.41 0.41 95 1010.4
20260506211719 16 203 1.6 1.6 0.00 0.41 0.41 95 1010.4
20260506211216 16 203 3.2 3.2 0.00 0.41 0.41 95 1010.3
20260506210713 16 203 3.2 3.2 0.00 0.41 0.41 95 1010.4
20260506210210 16 203 0.0 0.0 0.00 0.41 0.41 95 1010.4
20260506205708 16 203 1.6 1.6 0.00 0.41 0.41 95 1010.4
20260506205208 16 203 1.6 1.6 0.13 0.41 0.41 95 1010.5
20260506204705 16 203 0.0 1.6 0.13 0.41 0.41 95 1010.3
20260506204202 16 203 1.6 1.6 0.00 0.38 0.38 95 1010.5
20260506203700 16 203 1.6 1.6 0.00 0.38 0.38 95 1010.3
20260506203157 16 203 1.6 1.6 0.00 0.38 0.38 95 1010.5
20260506202655 16 203 1.6 1.6 0.18 0.38 0.38 95 1010.5
20260506202151 16 203 1.6 1.6 0.18 0.38 0.38 95 1010.4
20260506201648 16 203 1.6 1.6 0.30 0.38 0.38 95 1010.5
20260506201144 16 203 1.6 1.6 0.30 0.36 0.36 95 1010.5
20260506200641 16 203 1.6 1.6 0.18 0.33 0.33 95 1010.8
20260506200138 16 199 1.6 1.6 0.00 0.30 0.30 95 1010.9
20260506195635 16 199 0.0 0.0 0.18 0.30 0.30 94 1010.6
20260506195131 16 199 1.6 1.6 0.30 0.30 0.30 94 1010.9
20260506194629 16 199 0.0 0.0 0.13 0.28 0.28 94 1011.0
20260506194125 16 199 1.6 1.6 0.18 0.25 0.25 94 1011.1
20260506193623 16 199 1.6 1.6 0.18 0.25 0.25 94 1010.9
20260506193120 16 199 1.6 1.6 0.00 0.23 0.23 94 1011.1
20260506192616 16 199 1.6 1.6 0.00 0.23 0.23 94 1011.1
20260506192112 16 199 0.0 0.0 0.00 0.23 0.23 94 1011.3
20260506191609 16 199 0.0 0.0 0.00 0.23 0.23 94 1011.0
20260506191105 16 199 1.6 1.6 0.00 0.23 0.23 94 1011.0
20260506190603 16 199 0.0 0.0 0.00 0.23 0.23 94 1011.1
20260506190059 16 199 0.0 0.0 0.00 0.23 0.23 94 1011.0
20260506185556 16 199 0.0 0.0 0.13 0.23 0.23 94 1011.2
20260506185053 16 199 0.0 1.6 0.13 0.23 0.23 93 1011.7
20260506184550 16 199 1.6 1.6 0.00 0.20 0.20 93 1011.7
20260506184048 16 199 1.6 1.6 0.18 0.20 0.20 93 1011.5
20260506183543 16 199 1.6 1.6 0.18 0.20 0.20 93 1011.8
20260506183040 16 199 1.6 1.6 0.18 0.20 0.20 93 1012.3
20260506182537 16 199 0.0 0.0 0.00 0.18 0.18 93 1012.1
20260506182035 16 199 1.6 1.6 0.13 0.18 0.18 93 1012.0
20260506181533 16 199 0.0 0.0 0.13 0.18 0.18 93 1012.3
20260506181029 16 199 0.0 0.0 0.18 0.15 0.15 92 1012.2
20260506180525 16 199 0.0 0.0 0.18 0.15 0.15 91 1012.2
20260506180022 16 199 1.6 1.6 0.13 0.13 0.13 91 1012.4
20260506175519 16 199 0.0 0.0 0.13 0.13 0.13 90 1012.5
20260506175015 16 199 1.6 0.0 0.18 0.10 0.10 88 1012.5
20260506174514 16 199 1.6 3.2 0.18 0.10 0.10 88 1012.7
20260506174009 16 199 0.0 0.0 0.13 0.08 0.08 87 1012.5
20260506173508 16 199 0.0 0.0 0.30 0.08 0.08 85 1012.6
20260506173004 17 199 1.6 1.6 0.18 0.05 0.05 83 1012.6
20260506172502 17 199 1.6 1.6 0.00 0.03 0.03 82 1012.4
20260506171957 17 199 3.2 1.6 0.13 0.03 0.03 78 1012.3
20260506171455 18 199 3.2 3.2 0.13 0.03 0.03 76 1012.4
20260506170953 19 199 0.0 0.0 0.00 0.00 0.00 70 1012.0
20260506170449 20 199 1.6 1.6 0.00 0.00 0.00 65 1012.1
20260506165948 20 199 1.6 1.6 0.00 0.00 0.00 63 1012.1
20260506165447 20 199 1.6 1.6 0.00 0.00 0.00 62 1012.3
20260506164942 20 199 1.6 1.6 0.00 0.00 0.00 61 1012.1
20260506164439 20 199 1.6 1.6 0.00 0.00 0.00 62 1012.2
20260506163937 20 199 1.6 1.6 0.00 0.00 0.00 61 1012.2
20260506163432 20 199 1.6 1.6 0.00 0.00 0.00 62 1012.4
20260506162927 20 199 1.6 3.2 0.00 0.00 0.00 61 1012.3
20260506162425 20 199 1.6 3.2 0.00 0.00 0.00 61 1012.5